"read_dt","SO2 (ppb)","flags","PMT voltage (V)","lamp voltage (V)","lamp intensity (Hz)","internal temp (C)","react chamber temp (C)","sample flow (l/min)","pres (mmHg)","SO2 bkg (ppb)","SO2 coefficient"
2014-09-15 00:00:00,1896E-3,5C000000,-0724,0825,12155,028.4,045.5,0.475,733.5,01.19,0.508
2014-09-15 00:01:00,1809E-3,5C000000,-0724,0826,12337,028.4,045.5,0.476,733.5,01.19,0.508
2014-09-15 00:02:00,1817E-3,5C000000,-0724,0827,10984,028.4,045.5,0.476,733.5,01.19,0.508
2014-09-15 00:03:00,1711E-3,5C000000,-0724,0829,11251,028.5,045.5,0.475,733.4,01.19,0.508
2014-09-15 00:04:00,1805E-3,5C000000,-0724,0826,9975,028.4,045.5,0.476,733.4,01.19,0.508
2014-09-15 00:05:00,1924E-3,5C000000,-0724,0826,12283,028.4,045.5,0.475,733.5,01.19,0.508
2014-09-15 00:06:00,1779E-3,5C000000,-0724,0826,12271,028.4,045.5,0.476,733.5,01.19,0.508
2014-09-15 00:07:00,1881E-3,5C000000,-0724,0826,12088,028.5,045.5,0.476,733.5,01.19,0.508
2014-09-15 00:08:00,1821E-3,5C000000,-0724,0825,12333,028.4,045.5,0.475,733.5,01.19,0.508
2014-09-15 00:09:00,1857E-3,5C000000,-0724,0827,12431,028.4,045.5,0.476,733.5,01.19,0.508
2014-09-15 00:10:00,1738E-3,5C000000,-0724,0829,12369,028.4,045.5,0.475,733.5,01.19,0.508
2014-09-15 00:11:00,1814E-3,5C000000,-0724,0826,12223,028.5,045.5,0.476,733.4,01.19,0.508
2014-09-15 00:12:00,1808E-3,5C000000,-0724,0825,12384,028.5,045.5,0.475,733.4,01.19,0.508
2014-09-15 00:13:00,1770E-3,5C000000,-0724,0828,12464,028.5,045.5,0.475,733.4,01.19,0.508
2014-09-15 00:14:00,1664E-3,5C000000,-0724,0826,12181,028.5,045.5,0.476,733.4,01.19,0.508
2014-09-15 00:15:00,1691E-3,5C000000,-0724,0826,12208,028.5,045.5,0.475,733.4,01.19,0.508
2014-09-15 00:16:00,1771E-3,5C000000,-0724,0826,12281,028.5,045.5,0.475,733.4,01.19,0.508
2014-09-15 00:17:00,1968E-3,5C000000,-0724,0827,12305,028.5,045.5,0.475,733.4,01.19,0.508
2014-09-15 00:18:00,1931E-3,5C000000,-0724,0826,11961,028.5,045.5,0.475,733.4,01.19,0.508
2014-09-15 00:19:00,1800E-3,5C000000,-0724,0828,12351,028.5,045.5,0.476,733.4,01.19,0.508
2014-09-15 00:20:00,1815E-3,5C000000,-0724,0826,12304,028.5,045.5,0.475,733.4,01.19,0.508
2014-09-15 00:21:00,1951E-3,5C000000,-0724,0827,12395,028.5,045.5,0.476,733.4,01.19,0.508
2014-09-15 00:22:00,1825E-3,5C000000,-0724,0828,12282,028.5,045.5,0.475,733.4,01.19,0.508
2014-09-15 00:23:00,1768E-3,5C000000,-0724,0827,12337,028.5,045.5,0.475,733.4,01.19,0.508
2014-09-15 00:24:00,1610E-3,5C000000,-0724,0826,12114,028.5,045.5,0.476,733.4,01.19,0.508
2014-09-15 00:25:00,1933E-3,5C000000,-0724,0826,12148,028.6,045.5,0.475,733.3,01.19,0.508
2014-09-15 00:26:00,1777E-3,5C000000,-0724,0826,11812,028.5,045.5,0.475,733.3,01.19,0.508
2014-09-15 00:27:00,1876E-3,5C000000,-0724,0827,12429,028.5,045.5,0.475,733.3,01.19,0.508
2014-09-15 00:28:00,1710E-3,5C000000,-0724,0827,12265,028.6,045.5,0.475,733.3,01.19,0.508
2014-09-15 00:29:00,1870E-3,5C000000,-0724,0827,12377,028.6,045.5,0.475,733.3,01.19,0.508
2014-09-15 00:30:00,1900E-3,5C000000,-0724,0827,12193,028.6,045.5,0.475,733.3,01.19,0.508
2014-09-15 00:31:00,1759E-3,5C000000,-0724,0826,12380,028.6,045.5,0.475,733.3,01.19,0.508
2014-09-15 00:32:00,1909E-3,5C000000,-0724,0825,12245,028.6,045.5,0.475,733.3,01.19,0.508
2014-09-15 00:33:00,1637E-3,5C000000,-0724,0825,12248,028.6,045.5,0.475,733.3,01.19,0.508
2014-09-15 00:34:00,1823E-3,5C000000,-0724,0825,12200,028.6,045.5,0.475,733.3,01.19,0.508
2014-09-15 00:35:00,1884E-3,5C000000,-0724,0826,12099,028.6,045.5,0.475,733.3,01.19,0.508
2014-09-15 00:36:00,1741E-3,5C000000,-0724,0826,12143,028.6,045.5,0.475,733.3,01.19,0.508
2014-09-15 00:37:00,1783E-3,5C000000,-0724,0826,12323,028.6,045.5,0.475,733.3,01.19,0.508
2014-09-15 00:38:00,1842E-3,5C000000,-0724,0826,12335,028.6,045.5,0.475,733.3,01.19,0.508
2014-09-15 00:39:00,1874E-3,5C000000,-0724,0826,12017,028.6,045.5,0.475,733.3,01.19,0.508
2014-09-15 00:40:00,1804E-3,5C000000,-0724,0826,12341,028.6,045.5,0.475,733.2,01.19,0.508
2014-09-15 00:41:00,1810E-3,5C000000,-0724,0827,12524,028.6,045.5,0.475,733.2,01.19,0.508
2014-09-15 00:42:00,1679E-3,5C000000,-0724,0829,12075,028.6,045.5,0.475,733.2,01.19,0.508
2014-09-15 00:43:00,1753E-3,5C000000,-0724,0827,12049,028.7,045.5,0.475,733.2,01.19,0.508
2014-09-15 00:44:00,1818E-3,5C000000,-0724,0826,12354,028.7,045.5,0.475,733.3,01.19,0.508
2014-09-15 00:45:00,1834E-3,5C000000,-0724,0826,12155,028.7,045.5,0.475,733.2,01.19,0.508
2014-09-15 00:46:00,1707E-3,5C000000,-0724,0826,12258,028.6,045.5,0.475,733.2,01.19,0.508
2014-09-15 00:47:00,1848E-3,5C000000,-0724,0825,12279,028.7,045.5,0.475,733.2,01.19,0.508
2014-09-15 00:48:00,1691E-3,5C000000,-0724,0827,12224,028.7,045.5,0.475,733.2,01.19,0.508
2014-09-15 00:49:00,1908E-3,5C000000,-0724,0825,12177,028.7,045.5,0.475,733.2,01.19,0.508
2014-09-15 00:50:00,1800E-3,5C000000,-0724,0825,11967,028.7,045.5,0.475,733.2,01.19,0.508
2014-09-15 00:51:00,1861E-3,5C000000,-0724,0826,11283,028.7,045.5,0.475,733.2,01.19,0.508
2014-09-15 00:52:00,1700E-3,5C000000,-0724,0827,11068,028.7,045.5,0.475,733.2,01.19,0.508
2014-09-15 00:53:00,1741E-3,5C000000,-0724,0829,12358,028.7,045.5,0.475,733.1,01.19,0.508
2014-09-15 00:54:00,1746E-3,5C000000,-0724,0828,12321,028.7,045.5,0.475,733.2,01.19,0.508
2014-09-15 00:55:00,1775E-3,5C000000,-0724,0825,12167,028.7,045.5,0.475,733.2,01.19,0.508
2014-09-15 00:56:00,1695E-3,5C000000,-0724,0827,12117,028.7,045.5,0.475,733.1,01.19,0.508
2014-09-15 00:57:00,1824E-3,5C000000,-0724,0826,12242,028.7,045.5,0.475,733.1,01.19,0.508
2014-09-15 00:58:00,1871E-3,5C000000,-0724,0827,12338,028.7,045.5,0.475,733.1,01.19,0.508
2014-09-15 00:59:00,1796E-3,5C000000,-0724,0826,9961,028.7,045.5,0.475,733.1,01.19,0.508
2014-09-15 01:00:00,1685E-3,5C000000,-0724,0827,12313,028.7,045.5,0.475,733.1,01.19,0.508
2014-09-15 01:01:00,1805E-3,5C000000,-0724,0826,12278,028.8,045.5,0.475,733.1,01.19,0.508
2014-09-15 01:02:00,1883E-3,5C000000,-0724,0827,12450,028.8,045.5,0.475,733.1,01.19,0.508
2014-09-15 01:03:00,1848E-3,5C000000,-0724,0826,12103,028.8,045.5,0.475,733.1,01.19,0.508
2014-09-15 01:04:00,1727E-3,5C000000,-0724,0825,12369,028.8,045.5,0.475,733.1,01.19,0.508
2014-09-15 01:05:00,1821E-3,5C000000,-0724,0825,12219,028.8,045.5,0.475,733.1,01.19,0.508
2014-09-15 01:06:00,1763E-3,5C000000,-0724,0825,12259,028.8,045.5,0.474,733.1,01.19,0.508
2014-09-15 01:07:00,1703E-3,5C000000,-0724,0826,12265,028.8,045.5,0.475,733.1,01.19,0.508
2014-09-15 01:08:00,1802E-3,5C000000,-0724,0826,12317,028.8,045.5,0.474,733.1,01.19,0.508
2014-09-15 01:09:00,1781E-3,5C000000,-0724,0826,12438,028.8,045.5,0.475,733.1,01.19,0.508
2014-09-15 01:10:00,1812E-3,5C000000,-0724,0826,12246,028.8,045.5,0.474,733.1,01.19,0.508
2014-09-15 01:11:00,1820E-3,5C000000,-0724,0826,12114,028.8,045.5,0.475,733.1,01.19,0.508
2014-09-15 01:12:00,1793E-3,5C000000,-0724,0826,12107,028.8,045.5,0.475,733.1,01.19,0.508
2014-09-15 01:13:00,1816E-3,5C000000,-0724,0826,12361,028.9,045.5,0.475,733.1,01.19,0.508
2014-09-15 01:14:00,1822E-3,5C000000,-0724,0827,12445,028.9,045.5,0.475,733.1,01.19,0.508
2014-09-15 01:15:00,1722E-3,5C000000,-0724,0827,12266,028.9,045.5,0.474,733.1,01.19,0.508
2014-09-15 01:16:00,1619E-3,5C000000,-0724,0826,12378,028.9,045.5,0.475,733.1,01.19,0.508
2014-09-15 01:17:00,1822E-3,5C000000,-0724,0826,11949,028.9,045.5,0.474,733.1,01.19,0.508
2014-09-15 01:18:00,1775E-3,5C000000,-0724,0827,12284,028.9,045.5,0.475,733.1,01.19,0.508
2014-09-15 01:19:00,1735E-3,5C000000,-0724,0828,12233,028.9,045.5,0.474,733.1,01.19,0.508
2014-09-15 01:20:00,1853E-3,5C000000,-0724,0827,12360,028.9,045.5,0.475,733.1,01.19,0.508
2014-09-15 01:21:00,1916E-3,5C000000,-0724,0826,12128,028.9,045.5,0.475,733.1,01.19,0.508
2014-09-15 01:22:00,1817E-3,5C000000,-0724,0826,12150,028.9,045.5,0.475,733.1,01.19,0.508
2014-09-15 01:23:00,1746E-3,5C000000,-0724,0827,12317,028.9,045.5,0.475,733.1,01.19,0.508
2014-09-15 01:24:00,1902E-3,5C000000,-0724,0827,11081,028.9,045.5,0.475,733.1,01.19,0.508
2014-09-15 01:25:00,1784E-3,5C000000,-0724,0830,12296,028.9,045.5,0.475,733.1,01.19,0.508
2014-09-15 01:26:00,1749E-3,5C000000,-0724,0827,12375,029.0,045.5,0.474,733.0,01.19,0.508
2014-09-15 01:27:00,1692E-3,5C000000,-0724,0828,12324,029.0,045.5,0.475,733.0,01.19,0.508
2014-09-15 01:28:00,1707E-3,5C000000,-0724,0830,12353,029.0,045.5,0.474,733.0,01.19,0.508
2014-09-15 01:29:00,1729E-3,5C000000,-0724,0827,12206,029.0,045.5,0.475,733.0,01.19,0.508
2014-09-15 01:30:00,1725E-3,5C000000,-0724,0828,12226,029.0,045.5,0.474,733.0,01.19,0.508
2014-09-15 01:31:00,1758E-3,5C000000,-0724,0826,12335,029.0,045.5,0.475,733.0,01.19,0.508
2014-09-15 01:32:00,1841E-3,5C000000,-0724,0830,12259,029.0,045.5,0.474,733.0,01.19,0.508
2014-09-15 01:33:00,1710E-3,5C000000,-0724,0828,12359,029.0,045.5,0.475,733.0,01.19,0.508
2014-09-15 01:34:00,1782E-3,5C000000,-0724,0826,12354,029.0,045.5,0.474,732.9,01.19,0.508
2014-09-15 01:35:00,1757E-3,5C000000,-0724,0828,12304,029.0,045.5,0.475,733.0,01.19,0.508
2014-09-15 01:36:00,1624E-3,5C000000,-0724,0828,12326,029.0,045.5,0.474,733.0,01.19,0.508
2014-09-15 01:37:00,1787E-3,5C000000,-0724,0829,11206,029.0,045.5,0.475,732.9,01.19,0.508
2014-09-15 01:38:00,1856E-3,5C000000,-0724,0826,12097,029.0,045.5,0.474,733.0,01.19,0.508
2014-09-15 01:39:00,1960E-3,5C000000,-0724,0828,12274,029.0,045.5,0.475,733.0,01.19,0.508
2014-09-15 01:40:00,1734E-3,5C000000,-0724,0828,12473,029.1,045.5,0.474,733.0,01.19,0.508
2014-09-15 01:41:00,1725E-3,5C000000,-0724,0827,12444,029.1,045.5,0.475,732.9,01.19,0.508
2014-09-15 01:42:00,1712E-3,5C000000,-0724,0829,9871,029.1,045.5,0.474,733.0,01.19,0.508
2014-09-15 01:43:00,1829E-3,5C000000,-0724,0826,12276,029.1,045.5,0.474,732.9,01.19,0.508
2014-09-15 01:44:00,1870E-3,5C000000,-0724,0828,12310,029.1,045.5,0.474,732.9,01.19,0.508
2014-09-15 01:45:00,1806E-3,5C000000,-0724,0827,12240,029.1,045.5,0.474,733.0,01.19,0.508
2014-09-15 01:46:00,1801E-3,5C000000,-0724,0828,12255,029.1,045.5,0.474,733.0,01.19,0.508
2014-09-15 01:47:00,1722E-3,5C000000,-0724,0826,12224,029.1,045.5,0.474,733.0,01.19,0.508
2014-09-15 01:48:00,1678E-3,5C000000,-0724,0828,12607,029.1,045.5,0.474,733.0,01.19,0.508
2014-09-15 01:49:00,1694E-3,5C000000,-0724,0829,11339,029.1,045.5,0.474,732.9,01.19,0.508
2014-09-15 01:50:00,1784E-3,5C000000,-0724,0829,12323,029.1,045.5,0.474,732.9,01.19,0.508
2014-09-15 01:51:00,1738E-3,5C000000,-0724,0827,12205,029.1,045.5,0.474,732.9,01.19,0.508
2014-09-15 01:52:00,1836E-3,5C000000,-0724,0829,11214,029.1,045.5,0.474,732.9,01.19,0.508
2014-09-15 01:53:00,1681E-3,5C000000,-0724,0827,12439,029.1,045.5,0.474,732.9,01.19,0.508
2014-09-15 01:54:00,1812E-3,5C000000,-0724,0826,12286,029.1,045.5,0.474,732.9,01.19,0.508
2014-09-15 01:55:00,1777E-3,5C000000,-0724,0826,12269,029.1,045.5,0.474,732.8,01.19,0.508
2014-09-15 01:56:00,1843E-3,5C000000,-0724,0826,12471,029.2,045.5,0.474,732.8,01.19,0.508
2014-09-15 01:57:00,1774E-3,5C000000,-0724,0826,12214,029.2,045.5,0.474,732.8,01.19,0.508
2014-09-15 01:58:00,1704E-3,5C000000,-0724,0825,12292,029.2,045.5,0.474,732.8,01.19,0.508
2014-09-15 01:59:00,1948E-3,5C000000,-0724,0827,12331,029.2,045.5,0.474,732.8,01.19,0.508
2014-09-15 02:00:00,1887E-3,5C000000,-0724,0826,12410,029.2,045.5,0.474,732.8,01.19,0.508
2014-09-15 02:01:00,1927E-3,5C000000,-0724,0827,12306,029.2,045.5,0.474,732.8,01.19,0.508
2014-09-15 02:02:00,1768E-3,5C000000,-0724,0827,12022,029.2,045.5,0.474,732.8,01.19,0.508
2014-09-15 02:03:00,1828E-3,5C000000,-0724,0827,12392,029.2,045.5,0.474,732.8,01.19,0.508
2014-09-15 02:04:00,1806E-3,5C000000,-0724,0827,12221,029.2,045.5,0.474,732.7,01.19,0.508
2014-09-15 02:05:00,1919E-3,5C000000,-0724,0826,12368,029.2,045.5,0.474,732.8,01.19,0.508
2014-09-15 02:06:00,1726E-3,5C000000,-0724,0828,12272,029.2,045.5,0.474,732.8,01.19,0.508
2014-09-15 02:07:00,1677E-3,5C000000,-0724,0826,12330,029.2,045.5,0.474,732.7,01.19,0.508
2014-09-15 02:08:00,1751E-3,5C000000,-0724,0827,12271,029.2,045.5,0.474,732.7,01.19,0.508
2014-09-15 02:09:00,1758E-3,5C000000,-0724,0826,12180,029.2,045.5,0.474,732.8,01.19,0.508
2014-09-15 02:10:00,1839E-3,5C000000,-0724,0826,12354,029.2,045.5,0.474,732.8,01.19,0.508
2014-09-15 02:11:00,1824E-3,5C000000,-0724,0826,12281,029.3,045.5,0.474,732.7,01.19,0.508
2014-09-15 02:12:00,1794E-3,5C000000,-0724,0826,12238,029.3,045.5,0.474,732.8,01.19,0.508
2014-09-15 02:13:00,1775E-3,5C000000,-0724,0828,12342,029.2,045.5,0.474,732.8,01.19,0.508
2014-09-15 02:14:00,1953E-3,5C000000,-0724,0827,12215,029.3,045.5,0.474,732.7,01.19,0.508
2014-09-15 02:15:00,1792E-3,5C000000,-0724,0826,12169,029.3,045.5,0.474,732.7,01.19,0.508
2014-09-15 02:16:00,1785E-3,5C000000,-0724,0827,12378,029.3,045.5,0.474,732.7,01.19,0.508
2014-09-15 02:17:00,1834E-3,5C000000,-0724,0828,12227,029.3,045.5,0.474,732.7,01.19,0.508
2014-09-15 02:18:00,1898E-3,5C000000,-0724,0826,12349,029.3,045.5,0.474,732.7,01.19,0.508
2014-09-15 02:19:00,1710E-3,5C000000,-0724,0828,11148,029.3,045.5,0.474,732.7,01.19,0.508
2014-09-15 02:20:00,1623E-3,5C000000,-0724,0827,12264,029.3,045.5,0.474,732.7,01.19,0.508
2014-09-15 02:21:00,1872E-3,5C000000,-0724,0825,12324,029.3,045.5,0.474,732.7,01.19,0.508
2014-09-15 02:22:00,1729E-3,5C000000,-0724,0828,11196,029.3,045.5,0.474,732.7,01.19,0.508
2014-09-15 02:23:00,1786E-3,5C000000,-0724,0829,11075,029.3,045.5,0.474,732.7,01.19,0.508
2014-09-15 02:24:00,1717E-3,5C000000,-0724,0828,12138,029.3,045.5,0.474,732.7,01.19,0.508
2014-09-15 02:25:00,1906E-3,5C000000,-0724,0829,11114,029.3,045.5,0.473,732.7,01.19,0.508
2014-09-15 02:26:00,1882E-3,5C000000,-0724,0828,12321,029.3,045.5,0.474,732.6,01.19,0.508
2014-09-15 02:27:00,1711E-3,5C000000,-0724,0826,12226,029.3,045.5,0.474,732.6,01.19,0.508
2014-09-15 02:28:00,1698E-3,5C000000,-0724,0827,12339,029.3,045.5,0.474,732.6,01.19,0.508
2014-09-15 02:29:00,1814E-3,5C000000,-0724,0826,12339,029.4,045.5,0.474,732.6,01.19,0.508
2014-09-15 02:30:00,1752E-3,5C000000,-0724,0828,12377,029.4,045.5,0.474,732.6,01.19,0.508
2014-09-15 02:31:00,1914E-3,5C000000,-0724,0826,12244,029.4,045.5,0.474,732.6,01.19,0.508
2014-09-15 02:32:00,1708E-3,5C000000,-0724,0828,12232,029.4,045.5,0.474,732.6,01.19,0.508
2014-09-15 02:33:00,1742E-3,5C000000,-0724,0828,12087,029.4,045.5,0.474,732.6,01.19,0.508
2014-09-15 02:34:00,1781E-3,5C000000,-0724,0829,11046,029.4,045.5,0.474,732.6,01.19,0.508
2014-09-15 02:35:00,1729E-3,5C000000,-0724,0828,11100,029.4,045.5,0.474,732.6,01.19,0.508
2014-09-15 02:36:00,1779E-3,5C000000,-0724,0827,12157,029.4,045.5,0.473,732.6,01.19,0.508
2014-09-15 02:37:00,1931E-3,5C000000,-0724,0827,12255,029.4,045.5,0.474,732.6,01.19,0.508
2014-09-15 02:38:00,1907E-3,5C000000,-0724,0827,12216,029.4,045.5,0.473,732.6,01.19,0.508
2014-09-15 02:39:00,1764E-3,5C000000,-0724,0827,12081,029.4,045.5,0.474,732.6,01.19,0.508
2014-09-15 02:40:00,1805E-3,5C000000,-0724,0826,12308,029.5,045.5,0.473,732.6,01.19,0.508
2014-09-15 02:41:00,1686E-3,5C000000,-0724,0826,12254,029.5,045.5,0.474,732.6,01.19,0.508
2014-09-15 02:42:00,1858E-3,5C000000,-0724,0827,12228,029.5,045.5,0.474,732.6,01.19,0.508
2014-09-15 02:43:00,1837E-3,5C000000,-0724,0827,12341,029.5,045.5,0.473,732.6,01.19,0.508
2014-09-15 02:44:00,1899E-3,5C000000,-0724,0826,12260,029.5,045.5,0.474,732.6,01.19,0.508
2014-09-15 02:45:00,1698E-3,5C000000,-0724,0829,10905,029.5,045.5,0.473,732.6,01.19,0.508
2014-09-15 02:46:00,1772E-3,5C000000,-0724,0829,11910,029.5,045.5,0.474,732.6,01.19,0.508
2014-09-15 02:47:00,1740E-3,5C000000,-0724,0825,12059,029.5,045.5,0.473,732.6,01.19,0.508
2014-09-15 02:48:00,1753E-3,5C000000,-0724,0827,12258,029.5,045.5,0.474,732.6,01.19,0.508
2014-09-15 02:49:00,1895E-3,5C000000,-0724,0827,11218,029.5,045.5,0.474,732.6,01.19,0.508
2014-09-15 02:50:00,1761E-3,5C000000,-0724,0826,12231,029.5,045.5,0.473,732.5,01.19,0.508
2014-09-15 02:51:00,1794E-3,5C000000,-0724,0827,12224,029.5,045.5,0.474,732.6,01.19,0.508
2014-09-15 02:52:00,1820E-3,5C000000,-0724,0828,12315,029.6,045.5,0.473,732.5,01.19,0.508
2014-09-15 02:53:00,1892E-3,5C000000,-0724,0827,12332,029.6,045.5,0.474,732.5,01.19,0.508
2014-09-15 02:54:00,1792E-3,5C000000,-0724,0829,12341,029.6,045.5,0.473,732.5,01.19,0.508
2014-09-15 02:55:00,1653E-3,5C000000,-0724,0828,12360,029.6,045.5,0.474,732.5,01.19,0.508
2014-09-15 02:56:00,1685E-3,5C000000,-0724,0828,12383,029.6,045.5,0.473,732.5,01.19,0.508
2014-09-15 02:57:00,1839E-3,5C000000,-0724,0826,12272,029.6,045.5,0.473,732.5,01.19,0.508
2014-09-15 02:58:00,1782E-3,5C000000,-0724,0827,12188,029.6,045.5,0.474,732.4,01.19,0.508
2014-09-15 02:59:00,1761E-3,5C000000,-0724,0827,12103,029.6,045.5,0.473,732.4,01.19,0.508
2014-09-15 03:00:00,1862E-3,5C000000,-0724,0826,12080,029.6,045.5,0.474,732.4,01.19,0.508
2014-09-15 03:01:00,1792E-3,5C000000,-0724,0828,12287,029.6,045.5,0.473,732.4,01.19,0.508
2014-09-15 03:02:00,1763E-3,5C000000,-0724,0827,11200,029.6,045.5,0.474,732.4,01.19,0.508
2014-09-15 03:03:00,1600E-3,5C000000,-0724,0828,12160,029.6,045.5,0.473,732.4,01.19,0.508
2014-09-15 03:04:00,1777E-3,5C000000,-0724,0828,12218,029.6,045.5,0.473,732.4,01.19,0.508
2014-09-15 03:05:00,1747E-3,5C000000,-0724,0827,11133,029.7,045.5,0.474,732.4,01.19,0.508
2014-09-15 03:06:00,1731E-3,5C000000,-0724,0827,12387,029.7,045.5,0.473,732.4,01.19,0.508
2014-09-15 03:07:00,1769E-3,5C000000,-0724,0828,11109,029.7,045.5,0.473,732.4,01.19,0.508
2014-09-15 03:08:00,1714E-3,5C000000,-0724,0827,11215,029.7,045.5,0.473,732.4,01.19,0.508
2014-09-15 03:09:00,1838E-3,5C000000,-0724,0828,12221,029.7,045.5,0.473,732.4,01.19,0.508
2014-09-15 03:10:00,1807E-3,5C000000,-0724,0827,12179,029.7,045.5,0.473,732.4,01.19,0.508
2014-09-15 03:11:00,1833E-3,5C000000,-0724,0828,12204,029.7,045.5,0.473,732.4,01.19,0.508
2014-09-15 03:12:00,1861E-3,5C000000,-0724,0825,12211,029.7,045.5,0.473,732.4,01.19,0.508
2014-09-15 03:13:00,1781E-3,5C000000,-0724,0826,12141,029.7,045.5,0.473,732.4,01.19,0.508
2014-09-15 03:14:00,1848E-3,5C000000,-0724,0826,12142,029.7,045.5,0.473,732.4,01.19,0.508
2014-09-15 03:15:00,1811E-3,5C000000,-0724,0827,12310,029.7,045.5,0.473,732.4,01.19,0.508
2014-09-15 03:16:00,1908E-3,5C000000,-0724,0828,12288,029.8,045.5,0.473,732.4,01.19,0.508
2014-09-15 03:17:00,1944E-3,5C000000,-0724,0826,12308,029.8,045.5,0.473,732.3,01.19,0.508
2014-09-15 03:18:00,1810E-3,5C000000,-0724,0826,12079,029.8,045.5,0.473,732.3,01.19,0.508
2014-09-15 03:19:00,1897E-3,5C000000,-0724,0828,11090,029.8,045.5,0.473,732.3,01.19,0.508
2014-09-15 03:20:00,1852E-3,5C000000,-0724,0825,12276,029.8,045.5,0.473,732.3,01.19,0.508
2014-09-15 03:21:00,1795E-3,5C000000,-0724,0827,12272,029.8,045.5,0.473,732.3,01.19,0.508
2014-09-15 03:22:00,1872E-3,5C000000,-0724,0828,12376,029.8,045.5,0.473,732.3,01.19,0.508
2014-09-15 03:23:00,1844E-3,5C000000,-0724,0827,12383,029.8,045.5,0.473,732.3,01.19,0.508
2014-09-15 03:24:00,1653E-3,5C000000,-0724,0828,12368,029.8,045.5,0.473,732.3,01.19,0.508
2014-09-15 03:25:00,1849E-3,5C000000,-0724,0826,11171,029.8,045.5,0.473,732.3,01.19,0.508
2014-09-15 03:26:00,1867E-3,5C000000,-0724,0828,12239,029.8,045.5,0.473,732.3,01.19,0.508
2014-09-15 03:27:00,1609E-3,5C000000,-0724,0826,12158,029.9,045.5,0.473,732.3,01.19,0.508
2014-09-15 03:28:00,1755E-3,5C000000,-0724,0827,11132,029.9,045.5,0.473,732.2,01.19,0.508
2014-09-15 03:29:00,1836E-3,5C000000,-0724,0827,12230,029.9,045.5,0.473,732.3,01.19,0.508
2014-09-15 03:30:00,1741E-3,5C000000,-0724,0826,12322,029.9,045.5,0.473,732.2,01.19,0.508
2014-09-15 03:31:00,1721E-3,5C000000,-0724,0827,12259,029.9,045.5,0.473,732.2,01.19,0.508
2014-09-15 03:32:00,1900E-3,5C000000,-0724,0827,12316,029.9,045.5,0.473,732.2,01.19,0.508
2014-09-15 03:33:00,1704E-3,5C000000,-0724,0828,12181,029.9,045.5,0.473,732.2,01.19,0.508
2014-09-15 03:34:00,1787E-3,5C000000,-0724,0826,12082,029.9,045.5,0.473,732.2,01.19,0.508
2014-09-15 03:35:00,1822E-3,5C000000,-0724,0826,12401,029.9,045.5,0.473,732.2,01.19,0.508
2014-09-15 03:36:00,1819E-3,5C000010,-0724,0826,11024,029.9,045.6,0.473,732.2,01.19,0.508
2014-09-15 03:37:00,1871E-3,5C000000,-0724,0827,12010,030.0,045.5,0.473,732.2,01.19,0.508
2014-09-15 03:38:00,1909E-3,5C000000,-0724,0827,11180,030.0,045.5,0.473,732.2,01.19,0.508
2014-09-15 03:39:00,1820E-3,5C000000,-0724,0828,12374,030.0,045.5,0.472,732.2,01.19,0.508
2014-09-15 03:40:00,1760E-3,5C000000,-0724,0828,12141,030.0,045.5,0.473,732.2,01.19,0.508
2014-09-15 03:41:00,1772E-3,5C000000,-0724,0827,11083,030.0,045.5,0.473,732.2,01.19,0.508
2014-09-15 03:42:00,1813E-3,5C000000,-0724,0826,12218,030.0,045.5,0.473,732.2,01.19,0.508
2014-09-15 03:43:00,1732E-3,5C000000,-0724,0827,11966,030.0,045.5,0.473,732.2,01.19,0.508
2014-09-15 03:44:00,1799E-3,5C000000,-0724,0827,12316,030.0,045.5,0.472,732.2,01.19,0.508
2014-09-15 03:45:00,1719E-3,5C000000,-0724,0826,12358,030.0,045.5,0.473,732.1,01.19,0.508
2014-09-15 03:46:00,1772E-3,5C000000,-0724,0828,12295,030.0,045.5,0.473,732.2,01.19,0.508
2014-09-15 03:47:00,1779E-3,5C000000,-0724,0827,12222,030.0,045.5,0.472,732.1,01.19,0.508
2014-09-15 03:48:00,1699E-3,5C000000,-0724,0827,11072,030.0,045.5,0.473,732.1,01.19,0.508
2014-09-15 03:49:00,1784E-3,5C000000,-0724,0828,12367,030.0,045.5,0.472,732.1,01.19,0.508
2014-09-15 03:50:00,1857E-3,5C000000,-0724,0828,12029,030.0,045.5,0.472,732.1,01.19,0.508
2014-09-15 03:51:00,1725E-3,5C000000,-0724,0826,12266,030.1,045.5,0.473,732.1,01.19,0.508
2014-09-15 03:52:00,1699E-3,5C000000,-0724,0827,12183,030.1,045.5,0.472,732.1,01.19,0.508
2014-09-15 03:53:00,1976E-3,5C000000,-0724,0826,12270,030.0,045.5,0.473,732.1,01.19,0.508
2014-09-15 03:54:00,1855E-3,5C000000,-0724,0826,12360,030.1,045.5,0.473,732.0,01.19,0.508
2014-09-15 03:55:00,1739E-3,5C000000,-0724,0827,12371,030.1,045.5,0.472,732.1,01.19,0.508
2014-09-15 03:56:00,1799E-3,5C000000,-0724,0827,12303,030.1,045.5,0.473,732.0,01.19,0.508
2014-09-15 03:57:00,1827E-3,5C000000,-0724,0827,12474,030.1,045.5,0.473,732.0,01.19,0.508
2014-09-15 03:58:00,1898E-3,5C000000,-0724,0827,12345,030.1,045.5,0.472,732.0,01.19,0.508
2014-09-15 03:59:00,1914E-3,5C000000,-0724,0827,12253,030.1,045.6,0.473,732.0,01.19,0.508
2014-09-15 04:00:00,1840E-3,5C000000,-0724,0827,12159,030.1,045.6,0.472,732.0,01.19,0.508
2014-09-15 04:01:00,1745E-3,5C000000,-0724,0826,12354,030.1,045.5,0.472,732.0,01.19,0.508
2014-09-15 04:02:00,1775E-3,5C000000,-0724,0827,12226,030.1,045.5,0.473,732.0,01.19,0.508
2014-09-15 04:03:00,1862E-3,5C000000,-0724,0826,12309,030.1,045.5,0.472,732.0,01.19,0.508
2014-09-15 04:04:00,1706E-3,5C000000,-0724,0827,12251,030.2,045.5,0.472,732.0,01.19,0.508
2014-09-15 04:05:00,1863E-3,5C000000,-0724,0827,12323,030.2,045.6,0.473,732.0,01.19,0.508
2014-09-15 04:06:00,1811E-3,5C000000,-0724,0827,12181,030.2,045.5,0.472,732.0,01.19,0.508
2014-09-15 04:07:00,1919E-3,5C000000,-0724,0827,12187,030.2,045.5,0.472,732.0,01.19,0.508
2014-09-15 04:08:00,1804E-3,5C000000,-0724,0827,12263,030.2,045.5,0.473,732.0,01.19,0.508
2014-09-15 04:09:00,1730E-3,5C000000,-0724,0827,12290,030.2,045.5,0.472,732.0,01.19,0.508
2014-09-15 04:10:00,1765E-3,5C000000,-0724,0827,12271,030.2,045.5,0.472,732.0,01.19,0.508
2014-09-15 04:11:00,1787E-3,5C000000,-0724,0827,12218,030.2,045.5,0.473,732.0,01.19,0.508
2014-09-15 04:12:00,1792E-3,5C000000,-0724,0829,12319,030.2,045.6,0.472,732.0,01.19,0.508
2014-09-15 04:13:00,1711E-3,5C000000,-0724,0828,12313,030.2,045.5,0.472,732.0,01.19,0.508
2014-09-15 04:14:00,1834E-3,5C000000,-0724,0827,12133,030.2,045.6,0.473,732.0,01.19,0.508
2014-09-15 04:15:00,1788E-3,5C000000,-0724,0829,12345,030.3,045.6,0.472,732.0,01.19,0.508
2014-09-15 04:16:00,1847E-3,5C000000,-0724,0828,12185,030.3,045.5,0.472,732.0,01.19,0.508
2014-09-15 04:17:00,1871E-3,5C000000,-0724,0826,12176,030.3,045.5,0.472,732.0,01.19,0.508
2014-09-15 04:18:00,1692E-3,5C000000,-0724,0828,12372,030.3,045.6,0.472,732.0,01.19,0.508
2014-09-15 04:19:00,1903E-3,5C000000,-0724,0827,12322,030.3,045.5,0.472,732.0,01.19,0.508
2014-09-15 04:20:00,1863E-3,5C000000,-0724,0828,12306,030.3,045.5,0.472,732.0,01.19,0.508